Location: ??????
(42.0089°N, 44.3281°E)
Time: 10:54:52
(UTC+00:00)

Cosmos 2251 Rocket - Pass Details

Date: 01 June 2022
Orbit: 764 x 791 km, 74.0° (Epoch: 01 July)

Event Time Altitude Azimuth Distance (km) Brightness Sun altitude
Rises 22:02:16 0° 345° (NNW) 3,252 7.7 -24.3°
Reaches altitude 10° 22:04:44 10° 351° (N) 2,325 6.9 -24.2°
Maximum altitude 22:09:51 49° 66° (ENE) 1,003 4.3 -23.9°
Enters shadow 22:12:32 26° 127° (SE) 1,494 4.8 -23.7°
